"Pseudo-MPEC" for SJA0139

Created 2024 Sep 9 10:22:28 UT using Find_Orb

Click here for an explanation of pseudo-MPECs

 
 Astrometry: 
     SJA0139*KB2024 07 08.95989 17 23 24.48 +29 49 14.1    ~85GM 19.3 VZNEOCP185
     SJA0139 KB2024 07 08.98052 17 23 31.10 +29 49 05.4    ~85GMx      ZNEOCP185
     SJA0139 KB2024 07 09.00294 17 23 38.39 +29 48 50.6    ~85GM 20.7 VZNEOCP185
     SJA0139 1C2024 07 12.32050317 41 31.858+29 11 23.45   ~85GM       LNEOCP658
     SJA0139 1C2024 07 12.32375617 41 32.844+29 11 20.83   ~85GM       LNEOCP658
     SJA0139 1C2024 07 12.32699617 41 33.884+29 11 18.58   ~85GM       LNEOCP658
     SJA0139 1C2024 07 12.33023717 41 34.792+29 11 15.67   ~85GM       LNEOCP658

Station data:
(185) Observatoire astronomique jurassien  (N47.353045 E7.421900)
   Switzerland.  Observer M. Ory. 0.61-m f/3.88 reflector + CCD.
(658) Dominion Astrophysical Observatory  (N48.519984 W123.417000)
   Canada/BritColumbia.  Observer D. D. Balam. Measurers D. D. Balam, D. W.
   E. Green, C. E. Spratt. 1.82-m reflector + CCD.

Orbital elements:  SJA0139
   Perihelion 2024 Jun 21.42445 +/- 4.14 TT = 10:11:12 (JD 2460482.92445)
Epoch 2024 Jul 12.0 TT = JDT 2460503.5   Earth MOID: 0.1941   Ju: 0.0718
M   1.03702271 +/- 5.4              Sa: 0.4128                   AutoNEOCP
n   0.05040074 +/- 0.242            Peri.   48.67359 +/- 16
a   7.25846473 +/- 9.76             Node   215.92954 +/- 13
e   0.8415829 +/- 0.409             Incl.   11.28069 +/- 2.7
P  19.55542                H 20.73  G  0.15   U 11.8
q 1.14986447 +/- 0.0671    Q 13.3670650 +/- 19.4          (J2000 ecliptic)
6 of 7 observations 2024 July 8-12; mean residual 0".30
Residuals in arcseconds: 
240708 185  .04+  .10-    240712 658  .06+  .51-    240712 658  .29-  .03-    
240708 185( .49-  2.4+)   240712 658  .02+  .37-    
240709 185  .02+  .01+    240712 658  .73+  .12+    

Ephemerides (geocentric):
Date (UTC) HH   RA             Dec           delta  r     elong  mag " sig PA
---- --------  ------------   ------------  ------ ------ -----  --- --------
2024 09 09 10  20 31 36.280   +05 10 43.51  .71184 1.6120 138.7 22.2 3273  80
2024 09 09 11  20 31 40.449   +05 09 58.73  .71234 1.6123 138.7 22.2 3270  80
2024 09 09 12  20 31 44.616   +05 09 13.99  .71285 1.6127 138.7 22.2 3268  80
2024 09 09 13  20 31 48.782   +05 08 29.29  .71335 1.6131 138.7 22.2 3266  80
2024 09 09 14  20 31 52.947   +05 07 44.64  .71386 1.6135 138.7 22.2 3264  80
2024 09 09 15  20 31 57.110   +05 07 00.03  .71436 1.6139 138.6 22.2 3261  80
2024 09 09 16  20 32 01.272   +05 06 15.47  .71487 1.6143 138.6 22.2 3259  80
2024 09 09 17  20 32 05.433   +05 05 30.95  .71538 1.6146 138.6 22.2 3257  80
2024 09 09 18  20 32 09.593   +05 04 46.48  .71588 1.6150 138.6 22.2 3254  80
2024 09 09 19  20 32 13.751   +05 04 02.05  .71639 1.6154 138.6 22.2 3252  80
2024 09 09 20  20 32 17.908   +05 03 17.66  .71690 1.6158 138.6 22.2 3250  80
2024 09 09 21  20 32 22.064   +05 02 33.32  .71741 1.6162 138.6 22.2 3247  80
2024 09 09 22  20 32 26.219   +05 01 49.03  .71792 1.6166 138.6 22.2 3245  80
2024 09 09 23  20 32 30.372   +05 01 04.78  .71842 1.6170 138.5 22.2 3243  80
2024 09 10 00  20 32 34.524   +05 00 20.57  .71893 1.6173 138.5 22.2 3240  80
2024 09 10 01  20 32 38.675   +04 59 36.41  .71944 1.6177 138.5 22.2 3238  80
2024 09 10 02  20 32 42.825   +04 58 52.29  .71995 1.6181 138.5 22.2 3236  80
2024 09 10 03  20 32 46.974   +04 58 08.22  .72046 1.6185 138.5 22.2 3233  80
2024 09 10 04  20 32 51.121   +04 57 24.19  .72097 1.6189 138.5 22.2 3231  80
2024 09 10 05  20 32 55.267   +04 56 40.20  .72148 1.6193 138.5 22.2 3228  80
2024 09 10 06  20 32 59.412   +04 55 56.26  .72199 1.6197 138.4 22.2 3226  80
2024 09 10 07  20 33 03.555   +04 55 12.37  .72250 1.6200 138.4 22.2 3224  80
2024 09 10 08  20 33 07.698   +04 54 28.52  .72301 1.6204 138.4 22.2 3221  80
2024 09 10 09  20 33 11.839   +04 53 44.71  .72353 1.6208 138.4 22.2 3219  80
2024 09 10 10  20 33 15.979   +04 53 00.95  .72404 1.6212 138.4 22.2 3216  80
2024 09 10 11  20 33 20.118   +04 52 17.23  .72455 1.6216 138.4 22.2 3214  80
2024 09 10 12  20 33 24.255   +04 51 33.56  .72506 1.6220 138.4 22.2 3212  80
2024 09 10 13  20 33 28.392   +04 50 49.93  .72557 1.6224 138.4 22.2 3209  80
2024 09 10 14  20 33 32.527   +04 50 06.34  .72609 1.6227 138.3 22.2 3207  79
2024 09 10 15  20 33 36.661   +04 49 22.80  .72660 1.6231 138.3 22.2 3204  79
2024 09 10 16  20 33 40.793   +04 48 39.31  .72711 1.6235 138.3 22.2 3202  79
2024 09 10 17  20 33 44.925   +04 47 55.85  .72763 1.6239 138.3 22.2 3199  79
2024 09 10 18  20 33 49.055   +04 47 12.45  .72814 1.6243 138.3 22.2 3197  79
2024 09 10 19  20 33 53.185   +04 46 29.08  .72866 1.6247 138.3 22.2 3195  79
2024 09 10 20  20 33 57.313   +04 45 45.76  .72917 1.6251 138.3 22.2 3192  79
2024 09 10 21  20 34 01.439   +04 45 02.49  .72969 1.6255 138.2 22.2 3190  79
2024 09 10 22  20 34 05.565   +04 44 19.26  .73020 1.6258 138.2 22.2 3187  79
2024 09 10 23  20 34 09.689   +04 43 36.07  .73072 1.6262 138.2 22.2 3185  79
2024 09 11 00  20 34 13.813   +04 42 52.93  .73123 1.6266 138.2 22.2 3182  79
2024 09 11 01  20 34 17.935   +04 42 09.84  .73175 1.6270 138.2 22.2 3180  79
2024 09 11 02  20 34 22.056   +04 41 26.78  .73227 1.6274 138.2 22.2 3177  79
2024 09 11 03  20 34 26.176   +04 40 43.77  .73278 1.6278 138.2 22.2 3175  79
2024 09 11 04  20 34 30.294   +04 40 00.81  .73330 1.6282 138.1 22.2 3172  79
2024 09 11 05  20 34 34.412   +04 39 17.89  .73382 1.6285 138.1 22.2 3170  79
2024 09 11 06  20 34 38.528   +04 38 35.01  .73433 1.6289 138.1 22.2 3167  79
2024 09 11 07  20 34 42.643   +04 37 52.18  .73485 1.6293 138.1 22.3 3165  79
2024 09 11 08  20 34 46.757   +04 37 09.39  .73537 1.6297 138.1 22.3 3162  79
2024 09 11 09  20 34 50.870   +04 36 26.65  .73589 1.6301 138.1 22.3 3160  79